#timestamp,LO_Frequency,Hit,StdDev 
1459998015.5,286047003.3,N
1459998035.3,286047003.9,N
1459998055.2,286047003.0,N
1459998075.9,286047005.6,N
1459998095.7,286047005.2,N
1459998115.6,286047003.5,N
1459998135.4,286047005.5,N
1459998155.2,286047005.0,N
1459998175.0,286047008.8,N
1459998175.9,286047008.8,N
1459998195.8,286047007.1,N
1459998215.6,286047008.6,N
1459998235.4,286047006.7,N
1459998255.3,286047007.4,N
1459998275.1,286047006.9,N
1459998295.8,286047005.8,N
1459998315.7,286047005.1,N
1459998335.5,286047001.3,N
1459998355.3,286047005.1,N
1459998375.2,286047003.4,N
1459998395.9,286047002.9,N
1459998415.7,286047007.6,N
1459998435.6,286047008.6,Y
1459998455.4,286047004.3,P
1459998475.2,286047004.0,P
1459998495.1,286047005.5,P
1459998496.0,286047005.5,Y
1459998515.8,286046997.0,P
1459998535.6,286046998.9,N
1459998555.5,286046998.6,N
1459998575.3,286046997.1,N
1459998595.1,286046997.3,N
1459998615.9,286046997.1,N
1459998635.7,286046997.1,N
1459998655.5,286046996.6,N
1459998675.3,286046999.5,N
1459998695.2,286047000.7,N
1459998715.9,286046998.4,N
1459998735.7,286046997.0,N
1459998755.6,286046996.6,N
1459998775.4,286046999.1,N
1459998795.2,286046997.2,N
1459998815.1,286046995.1,N
1459998816.0,286046995.1,N
1459998835.8,286046993.3,Y
1459998855.6,286046996.8,P
1459998875.5,286046998.3,P
1459998895.3,286046998.5,N
1459998915.1,286046998.3,N
1459998935.9,286046998.2,N
1459998955.7,286047000.5,N
1459998975.5,286046999.7,N
1459998995.3,286046999.2,N
1459999015.2,286046995.0,Y
1459999035.0,286046999.3,P
1459999035.9,286046999.3,N
1459999055.8,286047001.0,N
1459999075.6,286046996.7,Y
1459999095.4,286046999.4,P
1459999115.3,286046997.8,P
1459999135.1,286046998.3,N
1459999136.0,286046998.3,N
1459999155.8,286046998.5,N
1459999175.7,286046998.4,N
1459999195.5,286047000.8,N
1459999215.3,286047000.7,N
1459999235.1,286046999.4,N
1459999255.9,286047000.5,N
1459999275.7,286046998.3,N
1459999295.5,286046998.6,N
1459999315.4,286047001.2,N
1459999335.2,286047002.7,N
1459999355.0,286047000.1,N
1459999355.9,286047000.1,N
1459999375.8,286047002.5,N
1459999395.6,286047004.3,Y
1459999415.4,286047003.9,P
1459999435.3,286047004.1,N
1459999455.1,286047003.7,N
1459999456.0,286047003.7,N
1459999475.8,286047003.6,N
1459999495.7,286047002.9,N
1459999515.5,286047007.5,Y
1459999535.3,286047001.8,P
1459999555.2,286047002.6,P
1459999575.9,286047000.1,N
1459999595.7,286047002.2,N
1459999615.6,286046998.1,N
1459999635.4,286047000.3,N
1459999655.2,286047000.8,N
1459999675.0,286046997.5,N
1459999676.0,286046997.5,N
1459999695.8,286046999.0,N
1459999715.6,286046997.2,N
1459999735.4,286046995.4,N
1459999755.3,286046995.5,N
1459999775.1,286046995.5,N
1459999795.8,286046997.8,N
1459999815.7,286046996.1,N
1459999835.5,286046998.0,N
1459999855.3,286046995.1,N
1459999875.2,286046995.1,N
1459999895.9,286046997.0,N
1459999915.7,286046995.8,N
1459999935.6,286046996.0,N
1459999955.4,286046997.4,N
1459999975.2,286046997.7,N
1459999995.0,286046996.9,N
1459999996.0,286046996.9,N
1460000015.8,286046999.4,N
1460000035.6,286046998.8,N
1460000055.4,286047001.1,N
1460000075.3,286047001.5,N
1460000095.1,286047001.5,N
1460000115.8,286047002.3,N
1460000135.7,286047000.0,N
1460000155.5,286047002.7,N
1460000175.3,286047005.9,N
1460000195.2,286047003.5,N
1460000215.9,286047003.1,N
1460000235.7,286047004.3,N
1460000255.6,286046998.3,N
1460000275.4,286046999.3,N
1460000295.2,286046998.4,N
1460000315.0,286046998.8,N
1460000316.0,286046998.8,N
1460000335.8,286046998.7,N
1460000355.6,286046998.5,N
1460000375.4,286046999.7,N
1460000395.3,286046999.4,N
1460000415.1,286046996.8,N
1460000435.8,286046999.4,N
1460000455.7,286046996.7,N
1460000475.5,286046996.5,N
1460000495.3,286046997.3,N
1460000515.2,286046999.1,N
1460000535.9,286046995.4,N
1460000555.7,286046997.6,N
1460000575.6,286046997.2,N
1460000595.4,286046998.0,N
1460000615.2,286046995.5,N
1460000635.1,286046997.5,N
1460000636.0,286046997.5,N
1460000655.8,286046999.9,N
1460000675.6,286046997.1,N
1460000695.4,286046997.3,N
1460000715.3,286046999.6,N
1460000735.1,286046999.4,N
1460000755.8,286046997.4,N
1460000775.7,286046997.4,N
1460000795.5,286046997.9,N
1460000815.3,286046999.6,N
1460000835.2,286047000.8,N
1460000855.9,286047001.8,N
1460000875.7,286047002.4,N
1460000895.6,286047001.9,N
1460000915.4,286047003.2,N
1460000935.2,286047002.6,N
1460000955.1,286047002.8,N
1460000956.0,286047002.8,N
1460000975.8,286046996.7,N
1460000995.6,286046996.2,N
1460001015.5,286046994.9,N
1460001035.3,286046997.7,N
1460001055.1,286046994.9,N
1460001075.8,286046995.3,N
1460001095.7,286046995.1,N
1460001115.5,286046997.1,N
1460001135.3,286046996.9,N
1460001155.2,286046995.7,N
1460001175.0,286046995.1,N
1460001175.9,286046995.1,N
1460001195.7,286046997.5,N
1460001215.6,286046995.3,N
1460001235.4,286046994.9,N
1460001255.2,286046997.4,N
1460001275.1,286046998.9,N
1460001276.0,286046998.9,N
1460001295.8,286046996.5,N
1460001315.6,286046995.1,N
1460001335.5,286046995.0,N
1460001355.3,286046995.9,N
1460001375.1,286046998.4,N
1460001395.9,286046998.7,N
1460001415.7,286046998.2,N
1460001435.5,286047000.9,N
1460001455.4,286047000.0,N
1460001475.2,286047000.4,N
1460001495.0,286046998.7,N
1460001495.9,286046998.7,N
1460001515.7,286046997.5,N
1460001535.6,286046995.3,N
1460001555.4,286046997.3,N
1460001575.2,286046996.2,N
1460001595.1,286046995.8,N
1460001596.0,286046995.8,N
